Weather History for CYYG - March, 2013

Change the Weather History Date:

Wednesday, March 13, 2013

  Actual Average Record
Temperature  
Mean Temperature 44 °F -  
Max Temperature 51 °F 37 °F - ()
Min Temperature 37 °F 23 °F - ()
Degree Days  
Heating Degree Days 21    
Moisture  
Dew Point 43 °F    
Average Humidity 90    
Maximum Humidity 100    
Minimum Humidity 70    
Precipitation  
Precipitation 0.71 in 0.12 in - ()
Sea Level Pressure  
Sea Level Pressure 29.92 in    
Wind  
Wind Speed 17 mph ()    
Max Wind Speed 25 mph    
Max Gust Speed 36 mph    
Visibility 12.9 miles    
Events Rain    
T = Trace of Precipitation, MM = Missing Value Source: Averaged Metar Reports

Daily Weather History Graph

Daily Weather History Graph

Search for Another Location

Airport or City:

Trip Planner

Search our weather history database for the weather conditions in past years. The results will help you decide how hot, cold, wet, or windy it might be!

Date:

Astronomy

Mar. 13, 2013 Rise Set
Actual Time 7:28 AM ADT 7:15 PM ADT
Civil Twilight 6:58 AM ADT 7:45 PM ADT
Nautical Twilight 6:23 AM ADT 8:20 PM ADT
Astronomical Twilight 5:48 AM ADT 8:56 PM ADT
Moon 7:57 AM ADT (3/13) 9:38 PM ADT (3/13)
Length of Visible Light 12h 46m
Length of Day
11h 47m
Waxing Crescent, 4% of the Moon is Illuminated
Mar 13
Waxing Crescent
Mar 19
First Quarter
Mar 27
Full
Apr 3
Last Quarter
Apr 10
New

Hourly Weather History & Observations

Time (ADT) Temp. Windchill Dew Point Humidity Pressure Visibility Wind Dir Wind Speed Gust Speed Precip Events Conditions
12:00 AM 37.4 °F 27.5 °F 37.4 °F 100% 30.19 in 12.0 mi SSE 18.4 mph 25.3 mph N/A   Overcast
1:00 AM 39.2 °F 29.8 °F 37.4 °F 93% 30.15 in 12.0 mi SSE 18.4 mph 28.8 mph N/A   Overcast
2:00 AM 39.2 °F 29.8 °F 39.2 °F 100% 30.14 in 10.0 mi SSE 18.4 mph 25.3 mph N/A   Overcast
3:00 AM 40 °F - 40 °F 100% 30.13 in 10 mi SSE 18.4 mph - -   Overcast
3:00 AM 41.0 °F 32.5 °F 39.2 °F 93% 30.12 in 10.0 mi SSE 17.3 mph 25.3 mph N/A   Overcast
4:00 AM 41.0 °F 32.5 °F 41.0 °F 100% 30.10 in 10.0 mi SSE 17.3 mph 25.3 mph N/A   Overcast
4:50 AM 41.0 °F 33.5 °F 41.0 °F 100% 30.09 in 10.0 mi SE 13.8 mph - N/A Rain Light Rain Showers
5:00 AM 41.0 °F 33.5 °F 41.0 °F 100% 30.09 in 10.0 mi SE 13.8 mph 20.7 mph N/A Rain Light Rain Showers
5:24 AM 41.0 °F 32.8 °F 41.0 °F 100% 30.08 in 10.0 mi SE 16.1 mph - N/A   Overcast
6:00 AM 42.8 °F 35.4 °F 41.0 °F 93% 30.07 in 10.0 mi SE 15.0 mph 21.9 mph N/A   Overcast
7:00 AM 42.8 °F 35.1 °F 41.0 °F 93% 30.06 in 12.0 mi SE 16.1 mph - N/A   Overcast
8:00 AM 42.8 °F 35.1 °F 41.0 °F 93% 30.04 in 12.0 mi SSE 16.1 mph - N/A   Overcast
9:00 AM 43 °F - 42 °F 94% 30.01 in 15 mi SSE 23.0 mph - -   Partly Cloudy
9:00 AM 42.8 °F 33.8 °F 41.0 °F 93% 30.01 in 15.0 mi SSE 21.9 mph 31.1 mph N/A   Overcast
10:00 AM 42.8 °F 33.3 °F 41.0 °F 93% 29.98 in 15.0 mi SSE 24.2 mph 31.1 mph N/A   Overcast
11:00 AM 44.6 °F 35.9 °F 42.8 °F 93% 29.98 in 15.0 mi SSE 23.0 mph 31.1 mph N/A   Overcast
12:00 PM 48.2 °F - 44.6 °F 87% 29.95 in 15.0 mi SE 21.9 mph 29.9 mph N/A   Overcast
1:00 PM 50.0 °F - 44.6 °F 82% 29.93 in 15.0 mi SSE 20.7 mph 28.8 mph N/A   Overcast
2:00 PM 50.0 °F - 44.6 °F 82% 29.90 in 15.0 mi SSE 19.6 mph 27.6 mph N/A   Mostly Cloudy
3:00 PM 51 °F - 44 °F 70% 29.87 in 15 mi SSE 21.9 mph - -   Overcast
3:00 PM 50.0 °F - 44.6 °F 82% 29.87 in 15.0 mi SSE 21.9 mph 28.8 mph N/A   Overcast
4:00 PM 50.0 °F - 44.6 °F 82% 29.83 in 15.0 mi SSE 21.9 mph 28.8 mph N/A   Overcast
5:00 PM 50.0 °F - 44.6 °F 82% 29.81 in 15.0 mi SSE 23.0 mph 31.1 mph N/A   Overcast
5:24 PM 50.0 °F - 42.8 °F 76% 29.80 in 15.0 mi SSE 19.6 mph 29.9 mph N/A Rain Light Rain Showers
5:50 PM 50.0 °F - 42.8 °F 76% 29.80 in 15.0 mi SSE 18.4 mph 28.8 mph N/A   Mostly Cloudy
6:00 PM 50.0 °F - 44.6 °F 82% 29.79 in 15.0 mi SE 21.9 mph 29.9 mph N/A   Mostly Cloudy
7:00 PM 48.2 °F - 42.8 °F 82% 29.77 in 15.0 mi SE 19.6 mph 27.6 mph N/A   Overcast
8:00 PM 48.2 °F - 44.6 °F 87% 29.75 in 15.0 mi SE 20.7 mph 31.1 mph N/A   Overcast
9:00 PM 48 °F - 44 °F 83% 29.72 in 15 mi SSE 24.2 mph - -   Partly Cloudy
9:00 PM 48.2 °F - 44.6 °F 87% 29.72 in 15.0 mi SSE 25.3 mph 33.4 mph N/A   Overcast
9:25 PM 48.2 °F - 44.6 °F 87% 29.71 in 10.0 mi SSE 20.7 mph 32.2 mph N/A Rain Light Rain Showers
10:00 PM 46.4 °F 38.3 °F 44.6 °F 93% 29.69 in 10.0 mi SE 23.0 mph 31.1 mph N/A   Overcast
10:32 PM 46.4 °F 38.7 °F 46.4 °F 100% 29.68 in 10.0 mi SE 20.7 mph 35.7 mph N/A Rain Rain
11:00 PM 46.4 °F 38.7 °F 46.4 °F 100% 29.65 in 10.0 mi SE 20.7 mph 29.9 mph N/A Rain Rain
11:16 PM 46.4 °F 38.7 °F 46.4 °F 100% 29.64 in 12.0 mi SE 20.7 mph 32.2 mph N/A   Overcast